sat.trackr.live / text

‹ back to catalog

STARLINK-4322

NORAD 53078 · 2022-077AM

PAYLOAD ACTIVE UNKNOWN

§ Identity

Operator
Country
US
Launch date
2022-07-11
Launch site
AFWTR
Launch vehicle
Mass (kg)
RCS (m²)

Purposes: comms

External: N2YO · Heavens-Above · Gunter

§ Orbital elements

Epoch: 2026-09-19T22:13:03.283680Z

Period
93.91 min
Inclination
97.2859°
Eccentricity
0.0001831
Mean motion
15.33423031 rev/d
Perigee alt
464.4 km
Apogee alt
466.9 km
Semi-major
6,843.7 km
B*
-3.6401e-5
RAAN
77.7083°
Arg perigee
90.2753°
Mean anomaly
269.8700°
Rev number
23,020

§ Raw data

STARLINK-43221 53078U 22077AM  26262.92573245 -.00001249  00000+0 -36401-4 0  99912 53078  97.2859  77.7083 0001831  90.2753 269.8700 15.33423031230200

JSON: /api/v1/satellites/53078 · /tle

For live sub-satellite position, see the globe view (requires WebGL).

§ Visibility from observer

Set your observer location to see the next 7 days of passes ≥ 10°. The values pass through the URL so the page stays shareable.

No JS? Fill the form by hand. The geolocation button needs JavaScript.